Regional Weather Roundup
Issued by NWS

Home | Current Version | Previous Version | Text Only | Print | Product List | Glossary On
Versions: 1 2 3 4 5 6 7 8 9 10 11 12 13 14 15 16 17 18 19 20 21 22 23 24 25 26 27 28 29 30 31 32 33 34 35 36 37 38 39 40 41 42 43 44 45 46 47 48 49 50
766
ASUS43 KLSX 300510
RWRMO

WEATHER SUMMARY FOR MISSOURI
NATIONAL WEATHER SERVICE SPRINGFIELD MO
1200 AM CDT SUN APR 30 2017

NOTE: "FAIR" INDICATES FEW OR NO CLOUDS BELOW 12,000 FEET WITH NO
       SIGNIFICANT WEATHER AND/OR OBSTRUCTIONS TO VISIBILITY.
       CURRENT SKY AND/OR WEATHER CONDITIONS ARE NOT AVAILABLE FOR
       CHILLICOTHE AND FARMINGTON.

MOZ001>031-035>038-043-044-053-054-300600-
...NORTHERN AND WESTERN MISSOURI...

CITY           SKY/WX    TMP DP  RH WIND       PRES   REMARKS
KANSAS CTY INT LGT RAIN  44  42  93 N7        29.78R
KANSAS C DTWN  LGT RAIN N/A N/A N/A N3G23     29.73F
LEE`S SUMMIT   RAIN      44  44 100 E17G30    29.78F
ST JOSEPH      CLOUDY    43  43 100 N17       29.81F
CHILLICOTHE      N/A     43  42  97 N7        29.90S
KIRKSVILLE     LGT RAIN  42  30  62 N10       29.91R

$$
MOZ066>068-077>081-088>096-101>105-300600-
...SOUTHWEST MISSOURI...

CITY           SKY/WX    TMP DP  RH WIND       PRES   REMARKS
SPRINGFIELD    NOT AVBL
JOPLIN         LGT RAIN  60  59  96 NE12G25   29.62F
BRANSON        TSTM      63  63 100 E14       29.70S

$$
MOZ032>034-039>042-045>050-055>058-069>072-300600-
...CENTRAL MISSOURI...

CITY           SKY/WX    TMP DP  RH WIND       PRES   REMARKS
COLUMBIA       NOT AVBL
JEFFERSON CITY LGT RAIN  55  52  89 N8        29.83R
ROLLA          HVY RAIN  61  32  33 SE16      29.79R
SEDALIA        RAIN      48  48 100 NE7       29.85S FOG
WHITEMAN AFB   HVY RAIN  45  45 100 N6        29.82S
OSAGE BEACH    HVY RAIN  55  55 100 NE6       29.81R FOG

$$
MOZ051-052-059>065-300600-
...EAST CENTRAL MISSOURI...

CITY           SKY/WX    TMP DP  RH WIND       PRES   REMARKS
ST LOUIS INTL  LGT RAIN  55  53  93 SW3       29.84R
SPIRIT OF STL  CLOUDY    56  56 100 CALM      29.83F

$$
MOZ072>076-082>087-097>100-106>115-300600-
...SOUTH CENTRAL AND SOUTHEAST MISSOURI...

CITY           SKY/WX    TMP DP  RH WIND       PRES   REMARKS
CAPE GIRARDEAU LGT RAIN  64  62  93 E9        29.87F
FARMINGTON     LGT RAIN  62  61  96 SE3       29.87S
POPLAR BLUFF   LGT RAIN  65  65 100 NE12      29.82F FOG

$$




USA.gov is the U.S. government's official web portal to all federal, state and local government web resources and services.